| time (UTC) | temp F | wind direction | speed MPH | gust MPH | rain 1hr in | rain 24hr in | rain mn in | humidity % | barometer mb |
| 20260504130542 | 57 | 121 | 6.0 | 11.0 | 0.00 | 0.00 | 0.00 | 66 | 1011.8 |
| 20260504110536 | 43 | 110 | 2.0 | 6.0 | 0.00 | 0.00 | 0.00 | 91 | 1012.1 |
| 20260504100526 | 40 | 148 | 2.0 | 5.0 | 0.00 | 0.00 | 0.00 | 92 | 1011.8 |
| 20260504081544 | 38 | 67 | 1.0 | 3.0 | 0.00 | 0.00 | 0.00 | 91 | 1011.2 |
| 20260504081038 | 38 | 113 | 1.0 | 3.0 | 0.00 | 0.00 | 0.00 | 91 | 1011.2 |
| 20260504080535 | 38 | 110 | 1.0 | 4.0 | 0.00 | 0.00 | 0.00 | 91 | 1011.2 |
| 20260504050535 | 41 | 41 | 0.0 | 3.0 | 0.00 | 0.00 | 0.00 | 85 | 1011.2 |
| 20260504045556 | 41 | 41 | 0.0 | 1.0 | 0.00 | 0.00 | 0.00 | 85 | 1011.2 |
| 20260504045057 | 41 | 41 | 0.0 | 2.0 | 0.00 | 0.00 | 0.00 | 84 | 1011.2 |
| 20260504044535 | 41 | 41 | 1.0 | 2.0 | 0.00 | 0.00 | 0.00 | 84 | 1011.3 |
| 20260504044036 | 41 | 41 | 1.0 | 2.0 | 0.00 | 0.00 | 0.00 | 83 | 1011.3 |
| 20260504043556 | 41 | 41 | 1.0 | 2.0 | 0.00 | 0.00 | 0.00 | 82 | 1011.4 |
| 20260504043037 | 41 | 41 | 0.0 | 1.0 | 0.00 | 0.00 | 0.00 | 81 | 1011.3 |
| 20260504042537 | 41 | 41 | 0.0 | 1.0 | 0.00 | 0.00 | 0.00 | 81 | 1011.3 |
| 20260504042042 | 41 | 41 | 0.0 | 1.0 | 0.00 | 0.00 | 0.00 | 80 | 1011.2 |
| 20260504041542 | 42 | 41 | 0.0 | 1.0 | 0.00 | 0.00 | 0.00 | 80 | 1011.2 |
| 20260504041043 | 42 | 41 | 0.0 | 0.0 | 0.00 | 0.00 | 0.00 | 79 | 1011.2 |
| 20260504040542 | 42 | 41 | 0.0 | 1.0 | 0.00 | 0.00 | 0.00 | 79 | 1011.1 |
| 20260504040043 | 42 | 41 | 0.0 | 1.0 | 0.00 | 0.00 | 0.00 | 79 | 1011.1 |
| 20260504035529 | 42 | 41 | 0.0 | 1.0 | 0.00 | 0.00 | 0.00 | 79 | 1011.1 |
| 20260504035031 | 42 | 41 | 1.0 | 2.0 | 0.00 | 0.00 | 0.00 | 79 | 1011.1 |
| 20260504034531 | 42 | 41 | 1.0 | 2.0 | 0.00 | 0.00 | 0.00 | 79 | 1011.1 |
| 20260504034033 | 42 | 41 | 0.0 | 0.0 | 0.00 | 0.00 | 0.00 | 79 | 1011.1 |
| 20260504033532 | 42 | 41 | 0.0 | 0.0 | 0.00 | 0.00 | 0.00 | 79 | 1011.1 |
| 20260504033053 | 42 | 41 | 0.0 | 0.0 | 0.00 | 0.00 | 0.00 | 79 | 1011.0 |
| 20260504032553 | 42 | 41 | 0.0 | 0.0 | 0.00 | 0.00 | 0.00 | 79 | 1011.0 |
| 20260504032034 | 42 | 41 | 0.0 | 0.0 | 0.00 | 0.00 | 0.00 | 79 | 1011.0 |
| 20260504031533 | 42 | 41 | 0.0 | 1.0 | 0.00 | 0.00 | 0.00 | 79 | 1011.0 |
| 20260504031034 | 42 | 41 | 0.0 | 2.0 | 0.00 | 0.00 | 0.00 | 79 | 1011.0 |
| 20260504030535 | 42 | 41 | 1.0 | 2.0 | 0.00 | 0.00 | 0.00 | 78 | 1010.9 |
| 20260504030035 | 42 | 41 | 1.0 | 2.0 | 0.00 | 0.00 | 0.00 | 78 | 1010.9 |
| 20260504025539 | 41 | 41 | 1.0 | 2.0 | 0.00 | 0.00 | 0.00 | 79 | 1010.8 |
| 20260504025040 | 41 | 41 | 0.0 | 2.0 | 0.00 | 0.00 | 0.00 | 78 | 1010.8 |
| 20260504024541 | 41 | 41 | 0.0 | 2.0 | 0.00 | 0.00 | 0.00 | 78 | 1010.8 |
| 20260504024041 | 41 | 41 | 0.0 | 1.0 | 0.00 | 0.00 | 0.00 | 78 | 1010.8 |
| 20260504023540 | 41 | 41 | 0.0 | 2.0 | 0.00 | 0.00 | 0.00 | 78 | 1010.8 |
| 20260504023040 | 41 | 41 | 1.0 | 2.0 | 0.00 | 0.00 | 0.00 | 77 | 1010.9 |
| 20260504022541 | 41 | 41 | 0.0 | 2.0 | 0.00 | 0.00 | 0.00 | 76 | 1010.8 |
| 20260504022042 | 41 | 41 | 1.0 | 2.0 | 0.00 | 0.00 | 0.00 | 76 | 1010.8 |
| 20260504021542 | 41 | 41 | 0.0 | 1.0 | 0.00 | 0.00 | 0.00 | 75 | 1010.9 |
| 20260504021042 | 41 | 41 | 0.0 | 1.0 | 0.00 | 0.00 | 0.00 | 74 | 1010.8 |
| 20260504020544 | 42 | 41 | 0.0 | 1.0 | 0.00 | 0.00 | 0.00 | 74 | 1010.8 |
| 20260504020041 | 42 | 41 | 0.0 | 2.0 | 0.00 | 0.00 | 0.00 | 73 | 1010.8 |
| 20260504015524 | 42 | 41 | 1.0 | 2.0 | 0.00 | 0.00 | 0.00 | 73 | 1010.8 |
| 20260504015025 | 42 | 41 | 0.0 | 2.0 | 0.00 | 0.00 | 0.00 | 72 | 1010.8 |
| 20260504014526 | 42 | 41 | 1.0 | 2.0 | 0.00 | 0.00 | 0.00 | 72 | 1010.7 |
| 20260504014025 | 42 | 41 | 1.0 | 2.0 | 0.00 | 0.00 | 0.00 | 70 | 1010.7 |
| 20260504013545 | 43 | 41 | 0.0 | 2.0 | 0.00 | 0.00 | 0.00 | 70 | 1010.6 |
| 20260504013025 | 43 | 41 | 1.0 | 2.0 | 0.00 | 0.00 | 0.00 | 71 | 1010.6 |
| 20260504012525 | 42 | 41 | 0.0 | 1.0 | 0.00 | 0.00 | 0.00 | 70 | 1010.5 |
| 20260504012045 | 42 | 41 | 0.0 | 1.0 | 0.00 | 0.00 | 0.00 | 71 | 1010.5 |
| 20260504011525 | 42 | 41 | 0.0 | 1.0 | 0.00 | 0.00 | 0.00 | 69 | 1010.4 |
| 20260504011024 | 43 | 41 | 0.0 | 0.0 | 0.00 | 0.00 | 0.00 | 69 | 1010.4 |
| 20260504010546 | 43 | 41 | 0.0 | 1.0 | 0.00 | 0.00 | 0.00 | 70 | 1010.3 |
| 20260504010025 | 43 | 41 | 1.0 | 1.0 | 0.00 | 0.00 | 0.00 | 68 | 1010.1 |
| 20260504005526 | 44 | 41 | 0.0 | 2.0 | 0.00 | 0.00 | 0.00 | 68 | 1010.1 |
| 20260504005026 | 44 | 41 | 1.0 | 2.0 | 0.00 | 0.00 | 0.00 | 68 | 1010.1 |
| 20260504004528 | 44 | 41 | 1.0 | 2.0 | 0.00 | 0.00 | 0.00 | 68 | 1010.0 |
| 20260504004028 | 44 | 41 | 0.0 | 2.0 | 0.00 | 0.00 | 0.00 | 68 | 1010.0 |
| 20260504003533 | 45 | 41 | 0.0 | 1.0 | 0.00 | 0.00 | 0.00 | 67 | 1009.9 |
| 20260504002539 | 45 | 41 | 0.0 | 2.0 | 0.00 | 0.00 | 0.00 | 65 | 1009.8 |
| 20260504002044 | 45 | 41 | 0.0 | 1.0 | 0.00 | 0.00 | 0.00 | 65 | 1009.7 |
| 20260504001524 | 45 | 41 | 0.0 | 1.0 | 0.00 | 0.00 | 0.00 | 68 | 1009.6 |
| 20260504001025 | 46 | 41 | 0.0 | 2.0 | 0.00 | 0.00 | 0.00 | 66 | 1009.6 |
| 20260504000526 | 46 | 41 | 0.0 | 3.0 | 0.00 | 0.00 | 0.00 | 64 | 1009.5 |
| 20260504000046 | 46 | 41 | 1.0 | 3.0 | 0.00 | 0.00 | 0.00 | 64 | 1009.4 |
| 20260503235546 | 46 | 346 | 1.0 | 2.0 | 0.00 | 0.00 | 0.00 | 66 | 1009.3 |
| 20260503235026 | 46 | 346 | 1.0 | 2.0 | 0.00 | 0.00 | 0.00 | 65 | 1009.3 |
| 20260503234527 | 46 | 346 | 1.0 | 2.0 | 0.00 | 0.00 | 0.00 | 66 | 1009.2 |
| 20260503234026 | 46 | 344 | 0.0 | 2.0 | 0.00 | 0.00 | 0.00 | 66 | 1009.2 |
| 20260503233527 | 46 | 344 | 1.0 | 2.0 | 0.00 | 0.00 | 0.00 | 63 | 1009.1 |
| 20260503233026 | 46 | 344 | 1.0 | 2.0 | 0.00 | 0.00 | 0.00 | 62 | 1009.0 |
| 20260503232526 | 46 | 344 | 1.0 | 2.0 | 0.00 | 0.00 | 0.00 | 61 | 1008.9 |
| 20260503232025 | 47 | 344 | 1.0 | 6.0 | 0.00 | 0.00 | 0.00 | 62 | 1009.0 |
| 20260503231526 | 48 | 336 | 2.0 | 8.0 | 0.00 | 0.00 | 0.00 | 59 | 1009.0 |
| 20260503231031 | 48 | 5 | 2.0 | 11.0 | 0.00 | 0.00 | 0.00 | 58 | 1008.9 |
| 20260503230552 | 48 | 317 | 2.0 | 11.0 | 0.00 | 0.00 | 0.00 | 61 | 1008.9 |
| 20260503230030 | 48 | 111 | 2.0 | 10.0 | 0.00 | 0.00 | 0.00 | 58 | 1008.8 |
| 20260503225530 | 48 | 15 | 3.0 | 11.0 | 0.00 | 0.00 | 0.00 | 60 | 1008.9 |
| 20260503225029 | 48 | 26 | 5.0 | 11.0 | 0.00 | 0.00 | 0.00 | 61 | 1008.9 |
| 20260503224529 | 48 | 60 | 1.0 | 6.0 | 0.00 | 0.00 | 0.00 | 62 | 1008.9 |
| 20260503224029 | 48 | 38 | 1.0 | 10.0 | 0.00 | 0.00 | 0.00 | 60 | 1008.8 |
| 20260503223531 | 48 | 360 | 4.0 | 10.0 | 0.00 | 0.00 | 0.00 | 61 | 1008.8 |
| 20260503223030 | 48 | 87 | 1.0 | 6.0 | 0.00 | 0.00 | 0.00 | 63 | 1008.8 |
| 20260503222530 | 48 | 105 | 2.0 | 10.0 | 0.00 | 0.00 | 0.00 | 63 | 1008.8 |
| 20260503222032 | 49 | 119 | 3.0 | 10.0 | 0.00 | 0.00 | 0.00 | 59 | 1008.7 |
| 20260503221532 | 49 | 105 | 3.0 | 12.0 | 0.00 | 0.00 | 0.00 | 58 | 1008.7 |
| 20260503221034 | 49 | 46 | 3.0 | 15.0 | 0.00 | 0.00 | 0.00 | 61 | 1008.7 |
| 20260503220535 | 49 | 12 | 8.0 | 15.0 | 0.00 | 0.00 | 0.00 | 60 | 1008.8 |
| 20260503220040 | 49 | 128 | 4.0 | 9.0 | 0.00 | 0.00 | 0.00 | 60 | 1008.7 |
| 20260503215539 | 50 | 84 | 3.0 | 13.0 | 0.00 | 0.00 | 0.00 | 61 | 1008.7 |
| 20260503215040 | 50 | 360 | 5.0 | 12.0 | 0.00 | 0.00 | 0.00 | 58 | 1008.7 |
| 20260503214540 | 50 | 80 | 3.0 | 11.0 | 0.00 | 0.00 | 0.00 | 58 | 1008.6 |
| 20260503214040 | 50 | 9 | 2.0 | 10.0 | 0.00 | 0.00 | 0.00 | 59 | 1008.7 |
| 20260503213540 | 50 | 350 | 5.0 | 10.0 | 0.00 | 0.00 | 0.00 | 61 | 1008.7 |
| 20260503213040 | 49 | 19 | 4.0 | 10.0 | 0.00 | 0.00 | 0.00 | 60 | 1008.7 |
| 20260503212600 | 49 | 21 | 5.0 | 12.0 | 0.00 | 0.00 | 0.00 | 62 | 1008.6 |
| 20260503212039 | 49 | 5 | 6.0 | 12.0 | 0.00 | 0.00 | 0.00 | 62 | 1008.7 |
| 20260503211540 | 49 | 25 | 3.0 | 17.0 | 0.00 | 0.00 | 0.00 | 61 | 1008.7 |
| 20260503211042 | 49 | 34 | 10.0 | 17.0 | 0.00 | 0.00 | 0.00 | 60 | 1008.6 |
| 20260503210541 | 49 | 5 | 7.0 | 16.0 | 0.00 | 0.00 | 0.00 | 62 | 1008.7 |
| 20260503210040 | 49 | 5 | 6.0 | 15.0 | 0.00 | 0.00 | 0.00 | 62 | 1008.5 |
| 20260503205540 | 49 | 338 | 5.0 | 18.0 | 0.00 | 0.00 | 0.00 | 61 | 1008.7 |
| 20260503205045 | 49 | 335 | 7.0 | 18.0 | 0.00 | 0.00 | 0.00 | 60 | 1008.8 |
| 20260503204544 | 49 | 58 | 5.0 | 17.0 | 0.00 | 0.00 | 0.00 | 60 | 1008.6 |
| 20260503204025 | 49 | 40 | 10.0 | 17.0 | 0.00 | 0.00 | 0.00 | 60 | 1008.6 |
| 20260503203525 | 49 | 308 | 7.0 | 18.0 | 0.00 | 0.00 | 0.00 | 61 | 1008.6 |
| 20260503203026 | 49 | 36 | 8.0 | 18.0 | 0.00 | 0.00 | 0.00 | 62 | 1008.7 |
| 20260503202526 | 49 | 327 | 9.0 | 15.0 | 0.00 | 0.00 | 0.00 | 61 | 1008.6 |
| 20260503202027 | 50 | 355 | 9.0 | 15.0 | 0.00 | 0.00 | 0.00 | 61 | 1008.5 |
| 20260503201526 | 50 | 12 | 8.0 | 19.0 | 0.00 | 0.00 | 0.00 | 62 | 1008.6 |
| 20260503201047 | 50 | 338 | 11.0 | 19.0 | 0.00 | 0.00 | 0.00 | 59 | 1008.7 |
| 20260503200546 | 51 | 338 | 7.0 | 16.0 | 0.00 | 0.00 | 0.00 | 61 | 1008.7 |
| 20260503200027 | 51 | 331 | 8.0 | 21.0 | 0.00 | 0.00 | 0.00 | 62 | 1008.7 |
| 20260503195526 | 50 | 331 | 6.0 | 21.0 | 0.00 | 0.00 | 0.00 | 65 | 1008.7 |
| 20260503195027 | 50 | 202 | 4.0 | 18.0 | 0.00 | 0.00 | 0.00 | 61 | 1008.6 |
| 20260503194528 | 51 | 313 | 7.0 | 16.0 | 0.00 | 0.00 | 0.00 | 61 | 1008.9 |
| 20260503194029 | 51 | 360 | 6.0 | 16.0 | 0.00 | 0.00 | 0.00 | 62 | 1008.8 |
| 20260503193531 | 51 | 20 | 5.0 | 11.0 | 0.00 | 0.00 | 0.00 | 61 | 1008.7 |
| 20260503193032 | 50 | 5 | 4.0 | 16.0 | 0.00 | 0.00 | 0.00 | 62 | 1008.8 |
| 20260503192532 | 50 | 300 | 9.0 | 17.0 | 0.00 | 0.00 | 0.00 | 63 | 1009.0 |
| 20260503192033 | 50 | 112 | 5.0 | 17.0 | 0.00 | 0.00 | 0.00 | 66 | 1008.7 |
| 20260503191534 | 49 | 272 | 9.0 | 24.0 | 0.00 | 0.00 | 0.00 | 62 | 1008.7 |
| 20260503191034 | 48 | 23 | 10.0 | 24.0 | 0.00 | 0.00 | 0.00 | 65 | 1008.8 |
| 20260503190534 | 48 | 16 | 6.0 | 18.0 | 0.00 | 0.00 | 0.00 | 64 | 1008.9 |
| 20260503190033 | 48 | 103 | 6.0 | 18.0 | 0.00 | 0.00 | 0.00 | 65 | 1008.8 |
| 20260503185534 | 50 | 51 | 9.0 | 15.0 | 0.00 | 0.00 | 0.00 | 64 | 1008.9 |
| 20260503184545 | 50 | 188 | 5.0 | 12.0 | 0.00 | 0.00 | 0.00 | 65 | 1008.8 |
| 20260503184024 | 50 | 15 | 7.0 | 12.0 | 0.00 | 0.00 | 0.00 | 64 | 1008.8 |
| 20260503183544 | 50 | 282 | 6.0 | 15.0 | 0.00 | 0.00 | 0.00 | 64 | 1008.7 |
| 20260503183044 | 49 | 38 | 8.0 | 15.0 | 0.00 | 0.00 | 0.00 | 64 | 1009.0 |
| 20260503182524 | 49 | 61 | 4.0 | 17.0 | 0.00 | 0.00 | 0.00 | 65 | 1008.9 |
| 20260503182025 | 49 | 31 | 6.0 | 17.0 | 0.00 | 0.00 | 0.00 | 63 | 1008.8 |
| 20260503181037 | 48 | 337 | 10.0 | 21.0 | 0.00 | 0.00 | 0.00 | 64 | 1008.9 |
| 20260503180538 | 49 | 333 | 11.0 | 17.0 | 0.00 | 0.00 | 0.00 | 64 | 1008.6 |
| 20260503180044 | 49 | 327 | 5.0 | 21.0 | 0.00 | 0.00 | 0.00 | 67 | 1008.9 |
| 20260503175604 | 49 | 347 | 10.0 | 21.0 | 0.00 | 0.00 | 0.00 | 62 | 1008.6 |
| 20260503175104 | 49 | 360 | 7.0 | 18.0 | 0.00 | 0.00 | 0.00 | 63 | 1008.8 |
| 20260503174542 | 49 | 14 | 10.0 | 19.0 | 0.00 | 0.00 | 0.00 | 62 | 1008.8 |
| 20260503174043 | 49 | 54 | 11.0 | 18.0 | 0.00 | 0.00 | 0.00 | 62 | 1008.6 |
| 20260503173544 | 48 | 5 | 8.0 | 15.0 | 0.00 | 0.00 | 0.00 | 64 | 1008.8 |
| 20260503173024 | 49 | 340 | 9.0 | 19.0 | 0.00 | 0.00 | 0.00 | 64 | 1008.8 |
| 20260503172524 | 49 | 331 | 10.0 | 19.0 | 0.00 | 0.00 | 0.00 | 63 | 1008.7 |
| 20260503172025 | 49 | 55 | 8.0 | 18.0 | 0.00 | 0.00 | 0.00 | 63 | 1008.9 |
| 20260503171525 | 48 | 52 | 7.0 | 21.0 | 0.00 | 0.00 | 0.00 | 66 | 1008.8 |
| 20260503171026 | 47 | 26 | 5.0 | 13.0 | 0.00 | 0.00 | 0.00 | 65 | 1008.7 |
| 20260503170526 | 47 | 360 | 4.0 | 13.0 | 0.00 | 0.00 | 0.00 | 69 | 1008.8 |
| 20260503150529 | 43 | 24 | 4.0 | 21.0 | 0.00 | 0.00 | 0.00 | 88 | 1009.7 |